Regional Weather Roundup
Issued by NWS Little Rock, AR

Home | Current Version | Previous Version | Text Only | Print | Product List | Glossary On
Versions: 1 2 3 4 5 6 7 8 9 10 11 12 13 14 15 16 17 18 19 20 21 22 23 24 25 26 27 28 29 30 31 32 33 34 35 36 37 38 39 40 41 42 43 44 45 46 47 48 49 50
000
ASUS44 KLZK 281605
RWRLZK

WEATHER ROUNDUP FOR ARKANSAS
NATIONAL WEATHER SERVICE LITTLE ROCK AR
1000 AM CST WED JAN 28 2015

NOTE: "FAIR" INDICATES FEW OR NO CLOUDS BELOW 12,000 FEET WITH NO
SIGNIFICANT WEATHER AND/OR OBSTRUCTIONS TO VISIBILITY.

ARZ001-003-010-029-281700-
NORTHWEST ARKANSAS

CITY           SKY/WX    TMP DP  RH WIND       PRES   REMARKS
FAYETTEVILLE   SUNNY     58  37  45 S12G20    30.11S
FORT SMITH     SUNNY     50  37  61 E10       30.17R
HARRISON       SUNNY     51  36  56 SE15      30.14S
BENTONVILLE    SUNNY     57  36  44 S12       30.10S
ROGERS         SUNNY     57  37  47 S12       30.10R
SILOAM SPGS    SUNNY     61  36  39 S16G22    30.10S
HIGHFILL       SUNNY     60  37  42 S14       30.09R
SPRINGDALE     SUNNY     59  37  44 S12       30.12
$$

ARZ004-005-016-281700-
NORTH CENTRAL ARKANSAS

CITY           SKY/WX    TMP DP  RH WIND       PRES   REMARKS
BATESVILLE     SUNNY     45  34  65 SE9       30.26F
FLIPPIN        SUNNY     45  32  61 SE6       30.19S
MTN HOME       SUNNY     43  33  68 SE9       30.19S
$$

ARZ040-041-281700-
WEST CENTRAL ARKANSAS

CITY           SKY/WX    TMP DP  RH WIND       PRES   REMARKS
MENA           SUNNY     50  41  71 CALM      30.19S
MOUNT IDA      SUNNY     54  39  57 E6        30.18S
$$

ARZ009-017-025-026-028-281700-
NORTHEAST ARKANSAS

CITY           SKY/WX    TMP DP  RH WIND       PRES   REMARKS
CORNING        FAIR      39  32  75 SE10      30.30S
JONESBORO      SUNNY     40  31  70 SE9       30.29F
NEWPORT        SUNNY     44  33  65 SE10      30.30S
WALNUT RIDGE   SUNNY     41  28  60 SE10      30.29F
BLYTHEVILLE    SUNNY     40  30  67 SE9       30.32R
$$

ARZ022-023-033-042-044-281700-
CENTRAL ARKANSAS

CITY           SKY/WX    TMP DP  RH WIND       PRES   REMARKS
LITTLE ROCK    MOSUNNY   49  35  58 S8        30.27S
N LITTLE ROCK  MOSUNNY   46  37  71 SE10G17   30.27S
JACKSONVILLE   SUNNY     48  34  60 SE7       30.26S
SEARCY         SUNNY     46  36  68 SE8       30.30R
HOT SPRINGS    SUNNY     51  37  58 E7        30.24S
RUSSELLVILLE   SUNNY     47  36  65 E9        30.22F
CLINTON        FAIR      45  36  70 CALM      30.27F
$$

ARZ036-281700-
EAST ARKANSAS

CITY           SKY/WX    TMP DP  RH WIND       PRES   REMARKS
WEST MEMPHIS   SUNNY     44  31  60 SE9       30.29S
$$

ARZ050-053-066-070-073-281700-
SOUTHWEST ARKANSAS

CITY           SKY/WX    TMP DP  RH WIND       PRES   REMARKS
ARKADELPHIA    FAIR      53  40  61 SE7       30.25S
CAMDEN         SUNNY     52  37  58 MISG      30.24S
TEXARKANA      SUNNY     59  41  51 S9        30.20R
EL DORADO      SUNNY     53  39  59 SE10      30.24R
DE QUEEN       SUNNY     53  40  61 E8        30.19S
$$

ARZ056-057-069-281700-
SOUTHEAST ARKANSAS

CITY           SKY/WX    TMP DP  RH WIND       PRES   REMARKS
PINE BLUFF     SUNNY     48  37  65 SE10      30.27S
STUTTGART      SUNNY     46  34  61 SE14      30.29R
MONTICELLO     SUNNY     50  36  58 SE6       30.27S

$$




USA.gov is the U.S. government's official web portal to all federal, state and local government web resources and services.